Location: Waco, TX
(31.5480°N, 97.1670°W)
Time: 08:23:04
(UTC-05:00)

ISS - Pass Details

Date: 13 October 2019
Orbit: 411 x 421 km, 51.6° (Epoch: 18 October)

Event Time Altitude Azimuth Distance (km) Brightness Sun altitude
Rises 18:06:00 0° 325° (NW) 2,343 0.3 10.2°
Reaches altitude 10° 18:08:16 10° 337° (NNW) 1,478 -0.8 9.8°
Maximum altitude 18:11:12 29° 39° (NE) 787 -2.7 9.2°
Drops below altitude 10° 18:14:08 10° 102° (ESE) 1,470 -1.5 8.6°
Sets 18:16:23 0° 114° (ESE) 2,329 -0.5 8.1°
